Flag for U.S.A. Weather past 2 weeks in Pueblo, Colorado, U.S.A.

Now
32 °F

Partly sunny.


Feels Like: 26 °F
Forecast: 22 / 39 °F
Wind: 6 mph from Northeast

Location: Pueblo Memorial Airport

Current Time: Feb 1, 2015 at 12:55:30 PM

Latest Report: Feb 1, 2015 at 11:53 AM


Visibility: 10 mi

Pressure: 30.20 "Hg

Humidity: 66%

Dew point: 22 °F

Location of PuebloLocation

Historic Weather in Pueblo — Graph

°F

Pueblo temperature yesterday

Maximum temperature yesterday: 46 °F (at 1:53 PM)
Minimum temperature yesterday: 31 °F (at 10:53 PM)
Average temperature yesterday: 37 °F

Past Weeks' High & Low Weather Summary

 TemperatureHumidityPressure
High72 °F (Jan 27, 2:53 PM)100% (Jan 31, 6:53 AM)30.57 "Hg (Jan 31, 6:53 AM)
Low-1 °F (Jan 22, 6:53 AM)7% (Jan 17, 3:53 PM)29.75 "Hg (Jan 31, 2:53 PM)
Average38 °F61%30.16 "Hg
* Reported Jan 17 10:53 AM — Feb 1 10:53 AM, Pueblo, Weather by CustomWeather, © 2014

Note: Actual official high and low records may vary slightly from our data, if they occured in-between our weather recording intervals... More about our weather records

Advertising

Pueblo weather history for previous 24 hours

 ConditionsComfort  
Time TempWeatherWind HumidityBarometerVisibility
10:53 AM
Feb 1
31 °FPartly sunny.8 mph73%30.23 "Hg10 mi
9:53 AM30 °FPassing clouds.8 mph66%30.20 "Hg10 mi
8:53 AM29 °FSunny.5 mph64%30.19 "Hg10 mi
7:53 AM25 °FScattered clouds.7 mph75%30.18 "Hg10 mi
6:53 AM26 °FClear.6 mph77%30.14 "Hg10 mi
5:53 AM28 °FPassing clouds.7 mph72%30.10 "Hg10 mi
4:53 AM29 °FClear.13 mph75%30.06 "Hg10 mi
3:53 AM31 °FClear.8 mph76%30.02 "Hg10 mi
2:53 AM32 °FClear.3 mph79%29.99 "Hg10 mi
1:53 AM34 °FOvercast.10 mph82%29.95 "Hg10 mi
12:53 AM35 °FOvercast.3 mph88%29.93 "Hg9 mi
11:53 PM
Jan 31
34 °FFog.No wind97%29.90 "Hg5 mi
10:53 PM31 °FIce fog.6 mph100%29.90 "Hg6 mi
9:53 PM33 °FFog.No wind96%29.88 "Hg5 mi
8:53 PM35 °FFog.3 mph100%29.86 "Hg6 mi
7:53 PM37 °FMostly cloudy.3 mph96%29.85 "Hg9 mi
6:53 PM37 °FOvercast.7 mph93%29.85 "Hg10 mi
5:53 PM39 °FLight rain. Fog.9 mph89%29.83 "Hg6 mi
4:53 PM41 °FLight rain. Overcast.3 mph80%29.78 "Hg10 mi
3:53 PM43 °FLight rain. Overcast.3 mph68%29.76 "Hg10 mi
2:53 PM45 °FMostly cloudy.3 mph58%29.75 "Hg10 mi
1:53 PM46 °FMostly cloudy.9 mph58%29.75 "Hg10 mi
12:53 PM44 °FOvercast.7 mph65%29.78 "Hg10 mi
Weather by CustomWeather, © 2014

See weather overviewHow to use our weather pages